Weather History for Volkel, Netherlands

Change the Weather History Date:

Saturday, March 1, 2014

  Actual Average Record
Temperature  
Mean Temperature 42 °F -  
Max Temperature 48 °F 49 °F 57 °F (1997)
Min Temperature 36 °F 35 °F 23 °F (2004)
Degree Days  
Heating Degree Days 23    
Moisture  
Dew Point 38 °F    
Average Humidity 84    
Maximum Humidity 95    
Minimum Humidity 57    
Precipitation  
Precipitation 0.02 in - - ()
Sea Level Pressure  
Sea Level Pressure 29.55 in    
Wind  
Wind Speed 6 mph ()    
Max Wind Speed 10 mph    
Max Gust Speed -    
Visibility 7.3 miles    
Events Rain    
Averages and records for this station are not official NWS values.
T = Trace of Precipitation, MM = Missing Value Source: Averaged Metar Reports

Daily Weather History Graph

Daily Weather History Graph

Search for Another Location

Airport:

Trip Planner

Search our weather history database for the weather conditions in past years. The results will help you decide how hot, cold, wet, or windy it might be!

Date:

Astronomy

Mar. 01, 2014 Rise Set
Actual Time 7:22 AM CET 6:17 PM CET
Civil Twilight 6:49 AM CET 6:50 PM CET
Nautical Twilight 6:10 AM CET 7:29 PM CET
Astronomical Twilight 5:31 AM CET 8:08 PM CET
Moon 7:02 AM CET (3/1) 6:53 PM CET (3/1)
Length of Visible Light 12h 01m
Length of Day
10h 54m
New Moon, 0% of the Moon is Illuminated
Mar 1
New Moon
Mar 8
First Quarter
Mar 16
Full
Mar 24
Last Quarter
Mar 30
New

Hourly Weather History & Observations

Time (CET) Temp. Windchill Dew Point Humidity Pressure Visibility Wind Dir Wind Speed Gust Speed Precip Events Conditions
12:00 AM 43 °F - 38 °F 78% 29.54 in 13 mi ENE 8.9 mph - - Rain Drizzle
12:25 AM 42.8 °F 38.0 °F 39.2 °F 87% 29.53 in 6.2 mi East 8.1 mph - N/A   Drizzle
12:55 AM 42.8 °F 38.6 °F 39.2 °F 87% 29.53 in 6.2 mi East 6.9 mph - N/A   Drizzle
12:59 AM 42.8 °F 38.6 °F 39.2 °F 87% 29.53 in 6.2 mi East 6.9 mph - N/A Rain Light Rain
1:00 AM 42 °F - 39 °F 87% 29.54 in 8 mi East 6.7 mph - - Rain Light Rain Showers
1:03 AM 42.8 °F 38.6 °F 39.2 °F 87% 29.53 in 6.2 mi East 6.9 mph - N/A Rain Light Rain Showers
1:25 AM 42.8 °F 38.0 °F 39.2 °F 87% 29.53 in 6.2 mi East 8.1 mph - N/A   Drizzle
1:55 AM 42.8 °F 39.3 °F 41.0 °F 93% 29.53 in 6.2 mi ESE 5.8 mph - N/A   Drizzle
2:00 AM 43 °F - 40 °F 85% 29.55 in 7 mi ESE 4.5 mph - - Rain Drizzle
2:00 AM 42.8 °F 40.1 °F 41.0 °F 93% 29.53 in 6.2 mi ESE 4.6 mph - N/A   Heavy Drizzle
2:04 AM 42.8 °F 39.3 °F 41.0 °F 93% 29.53 in 6.2 mi ESE 5.8 mph - N/A   Drizzle
2:11 AM 42.8 °F 39.3 °F 41.0 °F 93% 29.53 in 6.2 mi SE 5.8 mph - N/A   Overcast
2:14 AM 42.8 °F 39.3 °F 41.0 °F 93% 29.53 in 6.2 mi SE 5.8 mph - N/A   Overcast
2:25 AM 42.8 °F 40.1 °F 41.0 °F 93% 29.53 in 6.2 mi SSE 4.6 mph - N/A   Overcast
2:31 AM 42.8 °F 40.1 °F 39.2 °F 87% 29.53 in 6.2 mi SSE 4.6 mph - N/A   Overcast
2:32 AM 42.8 °F 39.3 °F 39.2 °F 87% 29.53 in 6.2 mi South 5.8 mph - N/A   Overcast
2:48 AM 41.0 °F 35.2 °F 39.2 °F 93% 29.53 in 6.2 mi South 9.2 mph - N/A   Mostly Cloudy
2:55 AM 41.0 °F 35.8 °F 39.2 °F 93% 29.53 in 6.2 mi South 8.1 mph - N/A   Mostly Cloudy
2:59 AM 41.0 °F 36.4 °F 39.2 °F 93% 29.53 in 6.2 mi South 6.9 mph - N/A   Mostly Cloudy
3:00 AM 42 °F - 38 °F 83% 29.56 in 19 mi South 6.7 mph - - Rain Drizzle
3:08 AM 41.0 °F 36.4 °F 39.2 °F 93% 29.53 in 6.2 mi South 6.9 mph - N/A   Overcast
3:25 AM 41.0 °F 37.1 °F 37.4 °F 87% 29.53 in 6.2 mi South 5.8 mph - N/A   Overcast
3:55 AM 41.0 °F 38.0 °F 37.4 °F 87% 29.53 in 6.2 mi SSE 4.6 mph - N/A   Overcast
4:00 AM 40 °F - 38 °F 88% 29.56 in 17 mi SSE 4.5 mph - -   Partly Cloudy
4:25 AM 39.2 °F 35.9 °F 37.4 °F 93% 29.53 in 6.2 mi SSE 4.6 mph - N/A   Mostly Cloudy
4:55 AM 37.4 °F 34.9 °F 35.6 °F 93% 29.53 in 6.2 mi SE 3.5 mph - N/A   Unknown
5:00 AM 38 °F - 36 °F 91% 29.56 in 9 mi SE 2.2 mph - -   Partly Cloudy
5:25 AM 37.4 °F 34.9 °F 35.6 °F 93% 29.53 in 6.2 mi SSE 3.5 mph - N/A   Mostly Cloudy
5:55 AM 37.4 °F 33.8 °F 35.6 °F 93% 29.53 in 6.2 mi SSE 4.6 mph - N/A   Overcast
6:00 AM 36 °F - 35 °F 95% 29.57 in 8 mi SSE 4.5 mph - -   Partly Cloudy
6:25 AM 37.4 °F 32.8 °F 35.6 °F 93% 29.53 in 6.2 mi SSE 5.8 mph - N/A   Overcast
6:55 AM 37.4 °F 33.8 °F 35.6 °F 93% 29.56 in 6.2 mi SSE 4.6 mph - N/A   Overcast
7:00 AM 38 °F - 36 °F 91% 29.57 in 9 mi South 4.5 mph - -   Partly Cloudy
7:25 AM 39.2 °F 35.9 °F 37.4 °F 93% 29.56 in 6.2 mi SSE 4.6 mph - N/A   Overcast
7:55 AM 39.2 °F 37.0 °F 37.4 °F 93% 29.56 in 6.2 mi SE 3.5 mph - N/A   Overcast
8:00 AM 39 °F - 37 °F 88% 29.57 in 9 mi SE 4.5 mph - -   Overcast
8:12 AM 39.2 °F 37.0 °F 35.6 °F 87% 29.56 in 6.2 mi SSE 3.5 mph - N/A   Overcast
8:21 AM 39.2 °F 37.0 °F 35.6 °F 87% 29.56 in 6.2 mi SSE 3.5 mph - N/A   Mostly Cloudy
8:25 AM 39.2 °F 37.0 °F 35.6 °F 87% 29.56 in 6.2 mi SSE 3.5 mph - N/A   Mostly Cloudy
8:55 AM 37.4 °F 34.9 °F 35.6 °F 93% 29.56 in 6.2 mi SE 3.5 mph - N/A   Mostly Cloudy
9:00 AM 37 °F - 35 °F 88% 29.58 in 9 mi SE 2.2 mph - -   Partly Cloudy
9:25 AM 39.2 °F 37.0 °F 35.6 °F 87% 29.56 in 6.2 mi SE 3.5 mph - N/A   Mostly Cloudy
9:55 AM 41.0 °F 37.1 °F 35.6 °F 81% 29.56 in 6.2 mi SE 5.8 mph - N/A   Overcast
10:00 AM 41 °F - 36 °F 77% 29.57 in 12 mi SE 6.7 mph - -   Scattered Clouds
10:25 AM 42.8 °F 38.6 °F 37.4 °F 81% 29.56 in 6.2 mi SE 6.9 mph - N/A   Mostly Cloudy
10:55 AM 42.8 °F 39.3 °F 37.4 °F 81% 29.56 in 6.2 mi SE 5.8 mph - N/A   Overcast
11:00 AM 44 °F - 38 °F 71% 29.57 in 16 mi SSE 6.7 mph - -   Scattered Clouds
11:09 AM 44.6 °F 40.7 °F 39.2 °F 81% 29.56 in 6.2 mi SE 6.9 mph - N/A   Mostly Cloudy
11:13 AM 44.6 °F 40.2 °F 37.4 °F 76% 29.56 in 6.2 mi SSE 8.1 mph - N/A   Overcast
11:25 AM 46.4 °F 41.5 °F 39.2 °F 76% 29.56 in 6.2 mi SSE 10.4 mph - N/A   Overcast
11:29 AM 44.6 °F 39.7 °F 37.4 °F 76% 29.56 in 6.2 mi SSE 9.2 mph - N/A   Overcast
11:34 AM 46.4 °F 41.9 °F 37.4 °F 71% 29.56 in 6.2 mi South 9.2 mph - N/A   Overcast
11:41 AM 46.4 °F 41.5 °F 37.4 °F 71% 29.56 in 6.2 mi South 10.4 mph - N/A   Overcast
11:55 AM 44.6 °F 39.7 °F 37.4 °F 76% 29.56 in 6.2 mi South 9.2 mph - N/A   Overcast
11:59 AM 44.6 °F 39.7 °F 37.4 °F 76% 29.56 in 6.2 mi SSE 9.2 mph - N/A   Overcast
12:00 PM 46 °F - 38 °F 63% 29.57 in 25 mi SSE 8.9 mph - -   Overcast
12:10 PM 46.4 °F 41.9 °F 37.4 °F 71% 29.56 in 6.2 mi South 9.2 mph - N/A   Overcast
12:25 PM 46.4 °F 42.4 °F 37.4 °F 71% 29.53 in 6.2 mi South 8.1 mph - N/A   Overcast
12:55 PM 46.4 °F 41.9 °F 37.4 °F 71% 29.53 in 6.2 mi SSE 9.2 mph - N/A   Overcast
1:00 PM 47 °F - 38 °F 61% 29.55 in 19 mi South 8.9 mph - -   Partly Cloudy
1:25 PM 48.2 °F - 37.4 °F 66% 29.53 in 6.2 mi South 6.9 mph - N/A   Overcast
1:55 PM 48.2 °F - 37.4 °F 66% 29.53 in 6.2 mi SSE 8.1 mph - N/A   Overcast
2:00 PM 47 °F - 36 °F 57% 29.55 in 22 mi SSE 8.9 mph - -   Overcast
2:25 PM 46.4 °F 42.4 °F 37.4 °F 71% 29.53 in 6.2 mi SE 8.1 mph - N/A   Overcast
2:55 PM 46.4 °F 42.9 °F 35.6 °F 66% 29.53 in 6.2 mi SSE 6.9 mph - N/A   Overcast
3:00 PM 47 °F - 37 °F 57% 29.54 in 25 mi SSE 6.7 mph - -   Overcast
3:25 PM 46.4 °F 43.5 °F 37.4 °F 71% 29.53 in 6.2 mi SSE 5.8 mph - N/A   Overcast
3:55 PM 46.4 °F 42.4 °F 35.6 °F 66% 29.53 in 6.2 mi SSE 8.1 mph - N/A   Overcast
4:00 PM 46 °F - 36 °F 57% 29.54 in 19 mi SSE 6.7 mph - -   Overcast
4:25 PM 46.4 °F 44.3 °F 37.4 °F 71% 29.53 in 6.2 mi South 4.6 mph - N/A   Light Drizzle
4:55 PM 42.8 °F 41.1 °F 37.4 °F 81% 29.53 in 6.2 mi SSW 3.5 mph - N/A   Light Drizzle
5:00 PM 44 °F - 38 °F 74% 29.54 in 16 mi SSW 2.2 mph - - Rain Light Drizzle
5:25 PM 44.6 °F - 39.2 °F 81% 29.53 in 6.2 mi Calm Calm - N/A   Overcast
5:55 PM 44.6 °F 43.1 °F 37.4 °F 76% 29.53 in 6.2 mi SSE 3.5 mph - N/A   Overcast
6:00 PM 45 °F - 37 °F 65% 29.55 in 17 mi SE 2.2 mph - - Rain Drizzle
6:25 PM 44.6 °F 43.1 °F 37.4 °F 76% 29.53 in 6.2 mi SE 3.5 mph - N/A   Overcast
6:55 PM 42.8 °F 41.1 °F 37.4 °F 81% 29.53 in 6.2 mi SSE 3.5 mph - N/A   Overcast
7:00 PM 43 °F - 37 °F 73% 29.55 in 14 mi SSE 2.2 mph - -   Partly Cloudy
7:25 PM 41.0 °F 39.0 °F 37.4 °F 87% 29.53 in 6.2 mi SE 3.5 mph - N/A   Overcast
7:33 PM 42.8 °F 40.1 °F 37.4 °F 81% 29.53 in 6.2 mi SSE 4.6 mph - N/A Rain Rain
7:42 PM 42.8 °F 39.3 °F 39.2 °F 87% 29.53 in 6.2 mi South 5.8 mph - N/A Rain Rain Showers
7:55 PM 42.8 °F 40.1 °F 39.2 °F 87% 29.53 in 6.2 mi SE 4.6 mph - N/A   Mostly Cloudy
8:00 PM 42 °F - 39 °F 83% 29.55 in 8 mi SSE 4.5 mph - - Rain Rain
8:25 PM 41.0 °F 39.0 °F 39.2 °F 93% 29.53 in 6.2 mi South 3.5 mph - N/A   Overcast
8:39 PM 41.0 °F 38.0 °F 37.4 °F 87% 29.53 in 6.2 mi South 4.6 mph - N/A   Mostly Cloudy
8:45 PM 41.0 °F 38.0 °F 37.4 °F 87% 29.53 in 6.2 mi South 4.6 mph - N/A   Mostly Cloudy
8:55 PM 41.0 °F 38.0 °F 37.4 °F 87% 29.53 in 6.2 mi South 4.6 mph - N/A   Overcast
8:59 PM 41.0 °F 38.0 °F 37.4 °F 87% 29.53 in 6.2 mi South 4.6 mph - N/A   Overcast
9:00 PM 40 °F - 38 °F 90% 29.56 in 7 mi South 4.5 mph - -   Partly Cloudy
9:10 PM 39.2 °F 35.0 °F 37.4 °F 93% 29.53 in 6.2 mi South 5.8 mph - N/A   Mostly Cloudy
9:25 PM 41.0 °F 36.4 °F 39.2 °F 93% 29.53 in 6.2 mi South 6.9 mph - N/A   Overcast
9:55 PM 41.0 °F 37.1 °F 39.2 °F 93% 29.53 in 6.2 mi South 5.8 mph - N/A   Overcast
10:00 PM 41 °F - 39 °F 88% 29.56 in 7 mi South 6.7 mph - -   Partly Cloudy
10:25 PM 41.0 °F 36.4 °F 39.2 °F 93% 29.56 in 6.2 mi South 6.9 mph - N/A   Overcast
10:26 PM 41.0 °F 36.4 °F 39.2 °F 93% 29.56 in 6.2 mi South 6.9 mph - N/A   Overcast
10:33 PM 41.0 °F 36.4 °F 39.2 °F 93% 29.56 in 6.2 mi South 6.9 mph - N/A   Overcast
10:39 PM 41.0 °F 36.4 °F 39.2 °F 93% 29.56 in 6.2 mi South 6.9 mph - N/A   Mostly Cloudy
10:46 PM 41.0 °F 36.4 °F 39.2 °F 93% 29.56 in 6.2 mi SSW 6.9 mph - N/A   Mostly Cloudy
10:47 PM 41.0 °F 36.4 °F 39.2 °F 93% 29.56 in 6.2 mi SSW 6.9 mph - N/A   Overcast
10:55 PM 41.0 °F 36.4 °F 39.2 °F 93% 29.56 in 5.6 mi SSW 6.9 mph - N/A   Mostly Cloudy
11:00 PM 42 °F - 39 °F 87% 29.57 in 6 mi South 6.7 mph - -   Mist
11:25 PM 41.0 °F 36.4 °F 39.2 °F 93% 29.56 in 5.6 mi South 6.9 mph - N/A   Overcast
11:35 PM 41.0 °F 35.8 °F 39.2 °F 93% 29.56 in 5.6 mi SSW 8.1 mph - N/A   Mostly Cloudy
11:48 PM 41.0 °F 35.8 °F 39.2 °F 93% 29.56 in 4.3 mi SSW 8.1 mph - N/A   Mostly Cloudy
11:55 PM 41.0 °F 36.4 °F 39.2 °F 93% 29.56 in 4.3 mi SSW 6.9 mph - N/A   Overcast
11:56 PM 41.0 °F 36.4 °F 39.2 °F 93% 29.56 in 5.0 mi South 6.9 mph - N/A   Overcast